Find Starlink 32868

NORAD ID: 62854 Int'l Des: 2025-022 Owner: SPXS Country: US Constellation: starlink operational
LEOCIRCULAR

現在のビュー

3D地球を読み込み中...

About Starlink 32868

Starlink 32868 (NORAD 62854) is a starlink constellation satellite (v2 mini) launched Feb 2, 2025 by SPXS of US. It operates in LEO, CIRCULAR orbit with a mass of 730.00 kg.

次回通過

Passes for default location (London). Set your location on the main map for personalized predictions.

高度履歴

Loading altitude history...

軌道要素

1 62854U 25022A 26263.10915471 .00011119 00000-0 33968-3 0 9998
2 62854 53.1595 301.8017 0001340 97.4827 262.6328 15.34403505 92549
Epoch: Sep 20, 2026 • Age: 23 hours

現在のステータス

高度 462.7 km
遠地点 / 近地点 N/A
速度 7.64 km/s
衛星直下点 21.63°N, 82.78°E
打ち上げ日 Feb 2, 2025
運用期間 1.6 years
タイプ internet

技術仕様

分類 Payload
質量 730.00 kg
乾燥質量 700.00 kg
長さ 0.30 m
スパン 29.00 m
形状 ? Box + pan
製造者 SPXS
バスタイプ Starlink V2M
フェーズステータス In Orbit
所有者/国 SPXS/US

Most Searched